Weather in Teka

Russia / Tomsk District     56°11′04″N   83°45′27″E
temp.,
°C
wind,
m/s
gust,
m/s
humid.,
%
clouds,
%
prec.,
mm/h
press.,
hPa
HPBL,
m
13 april, tue
tue1301:00+1wnw41099100 3.8 1025320
04:00+1wnw36100100 0.1 1026147
07:00−1nw49935 0.1 1028251
10:000nnw5794100 0.0 1030506
13:00+3wnw378473 0.0 1030590
16:00+6nw586333 0.1 10291279
19:00+4w4976100 0.3 1029190
22:00+2w51189100 0.3 1030312
14 april, wed
wed1401:00+1w5109396 0.4 1030268
04:00+1wsw51093100 0.0 1029254
07:00+1wsw5119499 0.0 1029338
10:00+2sw61298100 0.4 1027549
13:00+4wsw71483100 1.6 1024731
16:00+6w81378100 0.0 1021914
19:00+5w61286100 0.4 1022687
22:00+4wnw4893100 0.0 1023217
15 april, thu
thu1501:00+3wnw3695100 0.0 1024134
04:00+3wnw2396100 0.0 102453
07:00+3w2295100 0.0 102520
10:00+4sw2494100 0.0 1024193
13:00+6sw3583100 0.0 1023495
16:00+7sw4681100 0.0 1021628
19:00+7sw4890100 0.0 1020352
22:00+6ssw51095100 0.0 1019284
16 april, fri
fri1601:00+5ssw5129618 0.0 1017256
04:00+6sw61298100 0.0 1015306
07:00+6sw5119311 0.0 1014311
10:00+10sw712795 0.0 1013464
13:00+14wsw8126326 0.0 10111082
16:00+16wsw91265100 0.4 10101386
19:00+5nne6987100 1.8 1012393
22:00+3nne6983100 0.1 1014578
17 april, sat
sat1701:00+2ne5996100 0.4 1013527
04:00−1nne71194100 1.6 1014644
07:00−3ne71293100 3.2 1014672
10:00−4ne71190100 0.9 1014751
13:00−3ne81189100 2.6 1013855
16:00−2ne81085100 0.4 1012977
19:00−2ne71191100 1.4 1013916
22:00−4ne71292100 0.6 1014862